Flag for Belgium Weather past 2 weeks in Ghent, Belgium

Now
56 °F

Cool.


Feels Like: 56 °F
Forecast: 49 / 59 °F
Wind: 2 mph from West

Location: Munte

Current Time: May 28, 2015 at 10:49:48 PM

Latest Report: May 28, 2015 at 10:00 PM


Visibility: 13 mi

Pressure: 29.98 "Hg

Humidity: 62%

Dew point: 43 °F

Location of GhentLocation

Historic Weather in Ghent — Graph

°F

Ghent temperature yesterday

Maximum temperature yesterday: 67 °F (at 6:00 PM)
Minimum temperature yesterday: 45 °F (at 6:00 AM)
Average temperature yesterday: 57 °F

Past Weeks' High & Low Weather Summary

 TemperatureHumidityPressure
High68 °F (May 24, 6:00 PM)99% (May 14, 10:00 PM)30.37 "Hg (May 14, 10:00 PM)
Low41 °F (May 24, 6:00 AM)39% (May 24, 2:00 PM)29.68 "Hg (May 18, 9:00 PM)
Average54 °F73%30.10 "Hg
* Reported May 13 9:00 PM — May 28 9:00 PM, Ghent, Weather by CustomWeather, © 2015

Note: Actual official high and low records may vary slightly from our data, if they occured in-between our weather recording intervals... More about our weather records

Advertising

Ghent weather history for previous 24 hours

 ConditionsComfort  
Time TempWeatherWind HumidityBarometerVisibility
9:00 PM
Thu, May 28
58 °FRefreshingly cool.2 mph55%29.97 "Hg12 mi
8:00 PM58 °FRefreshingly cool.N/A58%29.96 "Hg12 mi
7:00 PM59 °FRefreshingly cool.2 mph58%29.96 "Hg12 mi
6:00 PM60 °FRefreshingly cool.3 mph57%29.97 "Hg12 mi
5:00 PM60 °FRefreshingly cool.3 mph55%29.97 "Hg12 mi
4:00 PM64 °FMild.7 mph47%29.96 "Hg12 mi
3:00 PM63 °FMild.6 mph54%29.96 "Hg12 mi
2:00 PM61 °FRefreshingly cool.6 mph58%29.96 "Hg11 mi
1:00 PM61 °FPartly sunny.6 mph64%29.97 "Hg12 mi
12:00 PM60 °FOvercast.6 mph68%29.97 "Hg12 mi
11:00 AM57 °FOvercast.6 mph76%29.98 "Hg12 mi
10:00 AM56 °FOvercast.6 mph74%29.98 "Hg11 mi
9:00 AM56 °FOvercast.7 mph73%29.98 "Hg12 mi
8:00 AM56 °FOvercast.5 mph79%29.98 "Hg12 mi
4:00 AM56 °FCool.5 mph70%29.99 "Hg12 mi
3:00 AM56 °FCool.3 mph72%30.01 "Hg12 mi
2:00 AM56 °FCool.3 mph70%30.03 "Hg12 mi
1:00 AM57 °FCool.5 mph68%30.04 "Hg12 mi
12:00 AM57 °FCool.3 mph65%30.07 "Hg12 mi
10:00 PM
Wed, May 27
59 °FCool.3 mph61%30.10 "Hg12 mi
Weather by CustomWeather, © 2015

See weather overviewHow to use our weather pages